STARLINK-11560, 62917

Orbit data source: Space-Track

STARLINK-11560, 62917 is a payload satellite owned by SpaceX/Seattle (US) in LEO that was launched on Sat, 08 Feb 2025 UTC via an FALCON 9 launch vehicle from the Air Force Eastern Test Range (AFETR). Payload-class satellites include a variety of spacecraft equipped with specific instruments for various scientific and technological missions. These include communications satellites like Starlink; space stations such as the ISS; scientific satellites like the Hubble; Earth observation satellites from companies like Planet Labs, Umbra, and HawkEye 360; GPS; miniature CubeSats for education and research; and military/defense satellites.

Loading next visibility...
Identifier
62917, 2025-027L
Orbit
LEO
Last TLE update
7 hours ago
Origin
Manufacturer
SpaceX/Seattle
Mission
Operational Commercial Communications
Bus & Motor
STARLINK V2M, Unknown motor
Mass
730 kg wet, ~700 kg dry
Launch date (UTC)
2025-02-08 (5 months ago)
Launch vehicle
FALCON 9
Launch site
Air Force Eastern Test Range (AFETR)
Object type
Payload
Rocket body
Debris
Shape & HBR
Box + 2 Pan, 29 m
Radar Cross Section
36.964 m², Large (>1 m²)

Expand to show TLE details & history

TLE from 7 hours ago
0 STARLINK-11560
1 62917U 25027L   25181.84373911  .00203373  00000-0  15539-2 0  9997
2 62917  43.0006  65.6752 0001492 246.8638 113.2073 15.70779408 23521
Epoch: 2025-06-30T20:14Z
TLE epoch observation values (Epoch: 2025-06-30T20:14:59.059Z)
Latitude
0.00003°
Longitude
-157.21857°
Altitude
356.836 km
Speed
7.697 km/s
True Right ascension
04h 22m 42s
True Declination
0° 00' 00"
Sunlit
Object was in daylight at epoch
Visualization orbit readout
Latitude
-30.65173°
Longitude
60.19718°
Altitude
363.651 km
Speed
7.692 km/s
Apparent Right ascension
22h 20m 22s
Apparent Declination
-54° 34' 33"
Sunlit
Object is in full shadow
Visualization observer readout
Local Sidereal Time
14:56:28
Azimuth
132.266° SE
Elevation
-43°
Doppler factor
1
Orbital elements
Apogee altitude
359.655 km
Perigee altitude
357.645 km
Semi-major axis
6,736.787 km
Eccentricity
0.00015
Inclination
43.0006°
RAAN
65.6752°
Arg. of periapsis
246.8638°
True anomaly
Unknown
Mean anomaly
113.2073°
Eccentric anomaly
Unknown
Mean motion
3.92522 °/min
Orbital period
91.71 mins
BSTAR
0.0015539
Loading maneuver chart data...
Loading SW <> Apogee altitude chart data...
Loading historical data...
Loading historical data...
Loading historical data...
Loading historical data...
Loading historical data...
Loading historical data...
Loading historical data...

STARLINK-11560 Visibility forecast

Observer location: undefined°, undefined°

Span
Click to sort rows by Start time (UTC) header in descending order
Start Az.
Max El. time (UTC)
Max El. Az.
Max El.
End time (UTC)
End Az.
4 mins2025-07-01 19:21:12.102Z200.2° SSW2025-07-01 19:23:12.102Z138.18° SSE24.329°2025-07-01 19:25:12.102Z91.838° ESE
4 mins2025-07-01 20:57:12.102Z268.456° W2025-07-01 20:59:12.102Z29.711° NE40.037°2025-07-01 21:01:12.102Z67.506° E
4 mins2025-07-02 00:10:12.102Z281.129° WNW2025-07-02 00:11:12.102Z239.454° WSW43.766°2025-07-02 00:14:12.102Z114.691° SE
|